Regional Weather Roundup
Issued by NWS

Home | Current Version | Previous Version | Text Only | Print | Product List | Glossary On
Versions: 1 2 3 4 5 6 7 8 9 10 11 12 13 14 15 16 17 18 19 20 21 22 23 24 25 26 27 28 29 30 31 32 33 34 35 36 37 38 39 40 41 42 43 44 45 46 47 48 49 50
000
ASUS46 KPQR 290110
RWROR

OREGON REGIONAL WEATHER ROUNDUP
NATIONAL WEATHER SERVICE PORTLAND OR
600 PM PDT THU MAY 28 2015

NOTE: "FAIR" INDICATES FEW OR NO CLOUDS BELOW 12,000 FEET WITH
NO SIGNIFICANT WEATHER AND/OR OBSTRUCTIONS TO VISIBILITY.

ORZ001>013-290200-
NORTHWEST OREGON


CITY           SKY/WX    TMP DP  RH WIND       PRES   REMARKS
ASTORIA        CLOUDY    57  52  83 W7        30.07F
NEWPORT        CLOUDY    54  50  87 NW8       30.10F
PORTLAND       PTSUNNY   84  54  35 W9        29.95F
VANCOUVER WA   PTSUNNY   84  53  34 N8        29.94F
SCAPPOOSE      MOSUNNY   83  53  35 N9        29.94F
HILLSBORO      MOSUNNY   84  57  39 NE3       29.95F
AURORA         MOSUNNY   82  54  37 CALM      29.96F
MCMINNVILLE    SUNNY     82  61  48 SW7       29.96F
SALEM          SUNNY     84  56  38 NW9       29.94F
CORVALLIS      SUNNY     79  55  44 NW15      29.98F
EUGENE         MOSUNNY   82  58  43 NE9       29.96F
$$

ORZ021-028-290200-
SOUTHWEST OREGON


CITY           SKY/WX    TMP DP  RH WIND       PRES   REMARKS
NORTH BEND     CLOUDY    55  52  88 N16       30.08S
BROOKINGS      CLOUDY    53  53 100 S7        30.05R
ROSEBURG       SUNNY     87  50  27 NW9       29.94F
SEXTON SUMMIT  MOSUNNY   72  49  44 VRB5      30.06F
MEDFORD        MOSUNNY   88  41  19 NW9       29.92F
$$

ORZ014>016-041-290200-
COLUMBIA GORGE


CITY           SKY/WX    TMP DP  RH WIND       PRES   REMARKS
TROUTDALE      MOSUNNY   84  48  28 VRB6      29.93F
THE DALLES     MOSUNNY   91  44  19 N8        29.88F
$$

ORZ029>031-041-044-049-050-061>064-502-503-505>511-290200-
EASTERN OREGON


CITY           SKY/WX    TMP DP  RH WIND       PRES   REMARKS
REDMOND        SUNNY     79  41  25 VRB6G17   30.01F
BEND           MOSUNNY   77  36  22 N8        30.03S
PRINEVILLE     SUNNY     79  34  19 CALM      30.02S
KLAMATH FALLS  MOSUNNY   78  37  22 SE7       30.04F
LAKEVIEW       MOSUNNY   75  34  22 SW3       30.10F
HERMISTON      SUNNY     88  43  20 VRB6      29.92F
PENDLETON      SUNNY     83  47  28 NE7       29.95F
JOHN DAY       SUNNY     77  38  24 W6        30.05F
MEACHAM        FAIR      72  46  39 VRB7      30.08F
LA GRANDE      SUNNY     77  39  25 CALM      30.01F
BAKER CITY     SUNNY     74  44  34 W6        30.05F
BURNS          SUNNY     75  37  25 SE3       30.08F
ROME             N/A     77  37  23 MISG      30.06F
ONTARIO        SUNNY     80  47  31 SE3       30.00F
$$



USA.gov is the U.S. government's official web portal to all federal, state and local government web resources and services.